Regional Weather Roundup
Issued by NWS

Home | Current Version | Previous Version | Text Only | Print | Product List | Glossary Off
Versions: 1 2 3 4 5 6 7 8 9 10 11 12 13 14 15 16 17 18 19 20 21 22 23 24 25 26 27

000
ASUS43 KDMX 230507
RWRIA

WEATHER ROUNDUP FOR IOWA
NATIONAL WEATHER SERVICE DES MOINES IA
1200 AM CDT WED APR 23 2014

NOTE: "FAIR" INDICATES FEW OR NO CLOUDS BELOW 12,000 FEET WITH NO
SIGNIFICANT WEATHER AND/OR OBSTRUCTIONS TO VISIBILITY.

* - THESE STATIONS ARE NOT NWS STATIONS...THUS NOT UNDER NWS
QUALITY CONTROL.  THEY ALSO DO NOT REPORT WEATHER SUCH
AS PRECIPITATION OR FOG.

IAZ001>003-012>014-020>022-031>034-043>046-230600-
   NORTHWEST IOWA

CITY           SKY/WX    TMP DP  RH WIND       PRES   REMARKS
CARROLL *      CLOUDY    55  34  44 SE10      30.03R
CHEROKEE *     CLOUDY    55  36  47 SE9       30.00F
DENISON *      CLOUDY    55  34  44 SE10      29.99F
LE MARS *      CLOUDY    57  36  44 SE14G21   29.97F
ORANGE CITY *  MOCLDY    55  36  47 SE9       29.98F
SHELDON *      MOCLDY    54  36  50 SE13      29.98F
SIOUX CITY     CLOUDY    59  34  39 SE14      29.95F
SPENCER        CLOUDY    55  36  48 SE12      30.02S
STORM LAKE *   CLOUDY    52  37  58 SE9       30.02F
$$

IAZ055>058-069>071-079>083-090>094-230600-
   SOUTHWEST IOWA

CITY           SKY/WX    TMP DP  RH WIND       PRES   REMARKS
ATLANTIC *     CLOUDY    57  32  38 E10       30.00F
AUDUBON *      MOCLDY    54  30  40 SE7       30.03F
CLARINDA *     CLOUDY    57  36  44 SE7       30.02S
COUNCIL BLFS * MOCLDY    54  36  50 SE8       29.97F
CRESTON *      CLOUDY    54  34  47 E8        30.03S
HARLAN  *      CLOUDY    55  36  47 SE8       30.04S
LAMONI         CLOUDY    54  36  50 E5        30.03S
RED OAK *      MOCLDY    57  34  41 E9        30.00S
SHENANDOAH *   MOCLDY    54  37  54 SE8       30.00S
$$

IAZ047>049-059>061-072>074-084-230600-
   CENTRAL IOWA

CITY           SKY/WX    TMP DP  RH WIND       PRES   REMARKS
AMES           CLOUDY    52  34  50 E6        30.05R
ANKENY *       MOCLDY    54  34  47 E5        30.05R
CHARITON *     CLOUDY    52  36  54 SE5       30.05R
DES MOINES     MOCLDY    56  32  40 E6        30.05R
GRINNELL*      CLOUDY    50  34  53 NE5       30.06S
KNOXVILLE *    MOCLDY    52  34  50 E8        30.04S
MARSHALLTOWN   CLOUDY    50  36  58 E8        30.05S
NEWTON *       MOCLDY    52  32  46 E8        30.06S
PELLA *        CLOUDY    54  34  47 E6        30.06S
PERRY *        CLOUDY    55  32  41 E9        30.04S
$$

IAZ004>006-015-016-023>025-035-036-230600-
   NORTH CENTRAL IOWA

CITY           SKY/WX    TMP DP  RH WIND       PRES   REMARKS
ALGONA *       CLOUDY    52  36  54 SE7       30.05S
CLARION *      CLOUDY    50  37  62 E12       30.05S
ESTHERVILLE    CLOUDY    49  40  71 SE12      30.03F
FORT DODGE *   CLOUDY    52  36  54 E9        30.05S
MASON CITY     CLOUDY    49  34  56 E12       30.07S
FOREST CITY *  MOCLDY    50  34  53 E6        30.05R
IOWA FALLS *   CLOUDY    50  36  57 E9        30.06S
$$

IAZ007>011-017>019-026>030-037>042-050>054-066-230600-
   NORTHEAST IOWA

CITY           SKY/WX    TMP DP  RH WIND       PRES   REMARKS
CEDAR RAPIDS   CLEAR     48  31  51 N6        30.05S
CHARLES CITY * CLOUDY    45  32  61 NE7       30.09R
CLINTON *      CLEAR     39  27  60 NE7       30.09S WCI  34
DECORAH *      CLEAR     43  25  49 CALM      30.09R
DUBUQUE        CLEAR     43  26  51 NE6       30.08R
MONTICELLO *   CLEAR     37  32  81 CALM      30.08R
OELWEIN *      CLOUDY   N/A N/A N/A NE8       30.08S
WATERLOO       PTCLDY    40  35  83 NE6       30.07S
$$

IAZ064-065-067-068-078-230600-
   EAST CENTRAL IOWA

CITY           SKY/WX    TMP DP  RH WIND       PRES   REMARKS
DAVENPORT      CLEAR     42  28  57 N8        30.07R
IOWA CITY      CLEAR     51  30  44 N6        30.08S
MT. PLEASANT * CLEAR     45  30  57 N8        30.06S
MUSCATINE *    CLEAR     46  30  53 NE5       30.07R
QUAD CITIES    CLEAR     41  31  67 CALM      30.06R
$$

IAZ062-063-075>077-085>089-095>099-230600-
   SOUTHEAST IOWA

CITY           SKY/WX    TMP DP  RH WIND       PRES   REMARKS
BURLINGTON     CLEAR     47  30  51 NE9       30.05R
FAIRFIELD *    CLOUDY    48  34  57 NE8       30.06S
FORT MADISON * CLEAR     46  32  57 N5        30.06S
KEOKUK *       CLEAR     52  32  46 NE3       30.04S
OSKALOOSA *      N/A     50  36  57 NE6       30.06S
CENTERVILLE *  CLEAR     50  34  53 NE6       30.06S
OTTUMWA        MOCLDY    52  33  48 NE9       30.05S
WASHINGTON *   CLEAR     43  30  61 NE6       30.06F
$$

ABBREVIATIONS USED IN REMARKS
   TC - TEMPERATURES IN CELSIUS
  WCI - WIND CHILL INDEX
   HX - HEAT INDEX
  VSB - VISIBILITY
$$




USA.gov is the U.S. government's official web portal to all federal, state and local government web resources and services.